Time,TemperatureF,DewpointF,PressureIn,WindDirection,WindDirectionDegrees,WindSpeedMPH,WindSpeedGustMPH,Humidity,HourlyPrecipIn,Conditions,Clouds,dailyrainin,SoftwareType,DateUTC
2013-08-30 00:02:00,78.6,75.8,29.95,ENE,71,0.0,0.0,91,0.00,,,0.00,WUHU216DAVISVP2,2013-08-30 05:02:00,
2013-08-30 00:07:00,78.6,75.7,29.95,ENE,72,0.0,0.0,91,0.00,,,0.00,WUHU216DAVISVP2,2013-08-30 05:07:00,
2013-08-30 00:12:00,78.7,75.8,29.94,ENE,72,0.0,0.0,91,0.00,,,0.00,WUHU216DAVISVP2,2013-08-30 05:12:00,
2013-08-30 00:17:00,78.7,76.2,29.94,ENE,72,0.0,0.0,92,0.00,,,0.00,WUHU216DAVISVP2,2013-08-30 05:17:00,
2013-08-30 00:22:00,78.8,75.9,29.94,ENE,72,0.0,0.0,91,0.00,,,0.00,WUHU216DAVISVP2,2013-08-30 05:22:00,
2013-08-30 00:27:00,78.8,76.3,29.94,ENE,71,0.0,0.0,92,0.00,,,0.00,WUHU216DAVISVP2,2013-08-30 05:27:00,
2013-08-30 00:32:00,78.6,75.7,29.94,ENE,72,0.0,0.0,91,0.00,,,0.00,WUHU216DAVISVP2,2013-08-30 05:32:00,
2013-08-30 00:37:00,78.5,76.0,29.94,ENE,71,0.0,0.0,92,0.00,,,0.00,WUHU216DAVISVP2,2013-08-30 05:37:00,
2013-08-30 00:42:00,78.5,76.0,29.94,ENE,72,0.0,0.0,92,0.00,,,0.00,WUHU216DAVISVP2,2013-08-30 05:42:00,
2013-08-30 00:47:00,78.3,75.8,29.94,ENE,72,0.0,0.0,92,0.00,,,0.00,WUHU216DAVISVP2,2013-08-30 05:47:00,
2013-08-30 00:52:00,78.2,75.7,29.94,ENE,72,0.0,0.0,92,0.00,,,0.00,WUHU216DAVISVP2,2013-08-30 05:52:00,
2013-08-30 00:57:00,78.3,76.1,29.94,East,96,0.0,0.0,93,0.00,,,0.00,WUHU216DAVISVP2,2013-08-30 05:57:00,
2013-08-30 01:02:00,78.5,76.0,29.94,East,101,0.0,0.0,92,0.00,,,0.00,WUHU216DAVISVP2,2013-08-30 06:02:00,
2013-08-30 01:07:00,78.4,75.9,29.94,East,98,0.0,0.0,92,0.00,,,0.00,WUHU216DAVISVP2,2013-08-30 06:07:00,
2013-08-30 01:12:00,78.4,75.9,29.94,East,82,0.0,0.0,92,0.00,,,0.00,WUHU216DAVISVP2,2013-08-30 06:12:00,
2013-08-30 01:17:00,78.3,75.8,29.94,East,82,0.0,0.0,92,0.00,,,0.00,WUHU216DAVISVP2,2013-08-30 06:17:00,
2013-08-30 01:22:00,78.1,75.6,29.94,East,82,0.0,0.0,92,0.00,,,0.00,WUHU216DAVISVP2,2013-08-30 06:22:00,
2013-08-30 01:27:00,77.8,75.3,29.94,East,82,0.0,0.0,92,0.00,,,0.00,WUHU216DAVISVP2,2013-08-30 06:27:00,
2013-08-30 01:32:00,77.4,74.9,29.94,East,82,0.0,0.0,92,0.00,,,0.00,WUHU216DAVISVP2,2013-08-30 06:32:00,
2013-08-30 01:37:00,77.1,74.6,29.94,East,82,0.0,0.0,92,0.00,,,0.00,WUHU216DAVISVP2,2013-08-30 06:37:00,
2013-08-30 01:42:00,76.7,73.9,29.94,East,82,0.0,0.0,91,0.00,,,0.00,WUHU216DAVISVP2,2013-08-30 06:42:00,
2013-08-30 01:47:00,76.3,74.1,29.94,East,82,0.0,0.0,93,0.00,,,0.00,WUHU216DAVISVP2,2013-08-30 06:47:00,
2013-08-30 01:52:00,76.0,73.8,29.94,East,83,0.0,0.0,93,0.00,,,0.00,WUHU216DAVISVP2,2013-08-30 06:52:00,
2013-08-30 01:58:00,75.8,73.9,29.94,East,94,0.0,0.0,94,0.00,,,0.00,WUHU216DAVISVP2,2013-08-30 06:58:00,
2013-08-30 02:03:00,76.0,74.5,29.94,East,94,0.0,0.0,95,0.00,,,0.00,WUHU216DAVISVP2,2013-08-30 07:03:00,
2013-08-30 02:08:00,76.1,74.6,29.94,East,94,0.0,0.0,95,0.00,,,0.00,WUHU216DAVISVP2,2013-08-30 07:08:00,
2013-08-30 02:13:00,76.1,74.5,29.94,East,94,0.0,0.0,95,0.00,,,0.00,WUHU216DAVISVP2,2013-08-30 07:13:00,
2013-08-30 02:18:00,76.1,74.6,29.94,East,92,0.0,0.0,95,0.00,,,0.00,WUHU216DAVISVP2,2013-08-30 07:18:00,
2013-08-30 02:23:00,76.0,74.5,29.94,East,93,0.0,0.0,95,0.00,,,0.00,WUHU216DAVISVP2,2013-08-30 07:23:00,
2013-08-30 02:27:00,75.9,74.3,29.94,East,92,0.0,0.0,95,0.00,,,0.00,WUHU216DAVISVP2,2013-08-30 07:27:00,
2013-08-30 02:32:00,75.9,74.3,29.94,East,92,0.0,0.0,95,0.00,,,0.00,WUHU216DAVISVP2,2013-08-30 07:32:00,
2013-08-30 02:37:00,76.0,74.7,29.94,East,93,0.0,0.0,96,0.00,,,0.00,WUHU216DAVISVP2,2013-08-30 07:37:00,
2013-08-30 02:42:00,76.3,75.0,29.94,East,93,0.0,0.0,96,0.00,,,0.00,WUHU216DAVISVP2,2013-08-30 07:42:00,
2013-08-30 02:47:00,76.4,75.1,29.93,ESE,122,0.0,0.0,96,0.00,,,0.00,WUHU216DAVISVP2,2013-08-30 07:47:00,
2013-08-30 02:52:00,76.3,75.0,29.94,ESE,122,0.0,0.0,96,0.00,,,0.00,WUHU216DAVISVP2,2013-08-30 07:52:00,
2013-08-30 02:57:00,76.1,74.5,29.93,ESE,122,0.0,0.0,95,0.00,,,0.00,WUHU216DAVISVP2,2013-08-30 07:57:00,
2013-08-30 03:02:00,75.5,73.9,29.93,ESE,122,0.0,0.0,95,0.00,,,0.00,WUHU216DAVISVP2,2013-08-30 08:02:00,
2013-08-30 03:07:00,75.2,73.6,29.93,ESE,122,0.0,0.0,95,0.00,,,0.00,WUHU216DAVISVP2,2013-08-30 08:07:00,
2013-08-30 03:12:00,75.0,73.4,29.93,ESE,122,0.0,0.0,95,0.00,,,0.00,WUHU216DAVISVP2,2013-08-30 08:12:00,
2013-08-30 03:17:00,74.8,73.2,29.93,ESE,122,0.0,0.0,95,0.00,,,0.00,WUHU216DAVISVP2,2013-08-30 08:17:00,
2013-08-30 03:22:00,74.7,73.5,29.93,ESE,122,0.0,0.0,96,0.00,,,0.00,WUHU216DAVISVP2,2013-08-30 08:22:00,
2013-08-30 03:27:00,74.8,73.6,29.93,ESE,122,0.0,0.0,96,0.00,,,0.00,WUHU216DAVISVP2,2013-08-30 08:27:00,
2013-08-30 03:32:00,74.6,73.4,29.93,ESE,122,0.0,0.0,96,0.00,,,0.00,WUHU216DAVISVP2,2013-08-30 08:32:00,
2013-08-30 03:37:00,74.6,73.4,29.93,ESE,122,0.0,0.0,96,0.00,,,0.00,WUHU216DAVISVP2,2013-08-30 08:37:00,
2013-08-30 03:42:00,74.6,73.4,29.93,ESE,122,0.0,0.0,96,0.00,,,0.00,WUHU216DAVISVP2,2013-08-30 08:42:00,
2013-08-30 03:47:00,74.7,73.5,29.93,ESE,122,0.0,0.0,96,0.00,,,0.00,WUHU216DAVISVP2,2013-08-30 08:47:00,
2013-08-30 03:52:00,74.6,73.4,29.93,ESE,123,0.0,0.0,96,0.00,,,0.00,WUHU216DAVISVP2,2013-08-30 08:52:00,
2013-08-30 03:57:00,74.6,73.4,29.93,ESE,123,0.0,0.0,96,0.00,,,0.00,WUHU216DAVISVP2,2013-08-30 08:57:00,
2013-08-30 04:02:00,74.6,73.4,29.93,ESE,123,0.0,0.0,96,0.00,,,0.00,WUHU216DAVISVP2,2013-08-30 09:02:00,
2013-08-30 04:07:00,74.6,73.4,29.93,ESE,123,0.0,0.0,96,0.00,,,0.00,WUHU216DAVISVP2,2013-08-30 09:07:00,
2013-08-30 04:12:00,74.4,73.2,29.93,ESE,123,0.0,0.0,96,0.00,,,0.00,WUHU216DAVISVP2,2013-08-30 09:12:00,
2013-08-30 04:17:00,74.3,73.1,29.93,ESE,123,0.0,0.0,96,0.00,,,0.00,WUHU216DAVISVP2,2013-08-30 09:17:00,
2013-08-30 04:22:00,74.3,73.1,29.93,ESE,123,0.0,0.0,96,0.00,,,0.00,WUHU216DAVISVP2,2013-08-30 09:22:00,
2013-08-30 04:27:00,74.3,73.1,29.93,ESE,123,0.0,0.0,96,0.00,,,0.00,WUHU216DAVISVP2,2013-08-30 09:27:00,
2013-08-30 04:32:00,74.2,73.0,29.93,ESE,123,0.0,0.0,96,0.00,,,0.00,WUHU216DAVISVP2,2013-08-30 09:32:00,
2013-08-30 04:37:00,74.2,73.0,29.93,ESE,123,0.0,0.0,96,0.00,,,0.00,WUHU216DAVISVP2,2013-08-30 09:37:00,
2013-08-30 04:42:00,74.2,73.0,29.93,ESE,123,0.0,0.0,96,0.00,,,0.00,WUHU216DAVISVP2,2013-08-30 09:42:00,
2013-08-30 04:47:00,74.2,73.0,29.93,ESE,123,0.0,0.0,96,0.00,,,0.00,WUHU216DAVISVP2,2013-08-30 09:47:00,
2013-08-30 04:52:00,74.2,73.0,29.93,ESE,123,0.0,0.0,96,0.00,,,0.00,WUHU216DAVISVP2,2013-08-30 09:52:00,
2013-08-30 04:57:00,74.1,72.5,29.93,ESE,123,0.0,0.0,95,0.00,,,0.00,WUHU216DAVISVP2,2013-08-30 09:57:00,
2013-08-30 05:02:00,74.0,72.4,29.93,ESE,123,0.0,0.0,95,0.00,,,0.00,WUHU216DAVISVP2,2013-08-30 10:02:00,
2013-08-30 05:07:00,73.8,72.2,29.93,ESE,123,0.0,0.0,95,0.00,,,0.00,WUHU216DAVISVP2,2013-08-30 10:07:00,
2013-08-30 05:12:00,73.6,72.0,29.93,ESE,123,0.0,0.0,95,0.00,,,0.00,WUHU216DAVISVP2,2013-08-30 10:12:00,
2013-08-30 05:17:00,73.5,71.9,29.93,ESE,123,0.0,0.0,95,0.00,,,0.00,WUHU216DAVISVP2,2013-08-30 10:17:00,
2013-08-30 05:22:00,73.3,71.8,29.93,ESE,123,0.0,0.0,95,0.00,,,0.00,WUHU216DAVISVP2,2013-08-30 10:22:00,
2013-08-30 05:27:00,73.2,71.7,29.93,ESE,123,0.0,0.0,95,0.00,,,0.00,WUHU216DAVISVP2,2013-08-30 10:27:00,
2013-08-30 05:32:00,73.0,71.5,29.93,ESE,123,0.0,0.0,95,0.00,,,0.00,WUHU216DAVISVP2,2013-08-30 10:32:00,
2013-08-30 05:37:00,73.0,71.8,29.93,ESE,123,0.0,0.0,96,0.00,,,0.00,WUHU216DAVISVP2,2013-08-30 10:37:00,
2013-08-30 05:42:00,73.0,71.8,29.93,ESE,123,0.0,0.0,96,0.00,,,0.00,WUHU216DAVISVP2,2013-08-30 10:42:00,
2013-08-30 05:47:00,73.2,71.7,29.93,ESE,123,0.0,0.0,95,0.00,,,0.00,WUHU216DAVISVP2,2013-08-30 10:47:00,
2013-08-30 05:52:00,73.1,71.6,29.93,ESE,123,0.0,0.0,95,0.00,,,0.00,WUHU216DAVISVP2,2013-08-30 10:52:00,
2013-08-30 05:57:00,73.2,71.3,29.93,ESE,123,0.0,0.0,94,0.00,,,0.00,WUHU216DAVISVP2,2013-08-30 10:57:00,
2013-08-30 06:02:00,73.1,71.2,29.94,ESE,123,0.0,0.0,94,0.00,,,0.00,WUHU216DAVISVP2,2013-08-30 11:02:00,
2013-08-30 06:07:00,72.9,71.0,29.93,ESE,123,0.0,0.0,94,0.00,,,0.00,WUHU216DAVISVP2,2013-08-30 11:07:00,
2013-08-30 06:12:00,72.8,71.3,29.94,ESE,123,0.0,0.0,95,0.00,,,0.00,WUHU216DAVISVP2,2013-08-30 11:12:00,
2013-08-30 06:17:00,72.5,70.6,29.94,ESE,123,0.0,0.0,94,0.00,,,0.00,WUHU216DAVISVP2,2013-08-30 11:17:00,
2013-08-30 06:22:00,72.4,70.6,29.94,NNE,31,0.0,0.0,94,0.00,,,0.00,WUHU216DAVISVP2,2013-08-30 11:22:00,
2013-08-30 06:27:00,72.2,70.3,29.94,NNE,31,0.0,0.0,94,0.00,,,0.00,WUHU216DAVISVP2,2013-08-30 11:27:00,
2013-08-30 06:32:00,72.4,70.9,29.94,NNE,25,0.0,0.0,95,0.00,,,0.00,WUHU216DAVISVP2,2013-08-30 11:32:00,
2013-08-30 06:37:00,72.6,70.7,29.94,NNE,25,0.0,0.0,94,0.00,,,0.00,WUHU216DAVISVP2,2013-08-30 11:37:00,
2013-08-30 06:42:00,72.6,70.7,29.94,NNE,25,0.0,0.0,94,0.00,,,0.00,WUHU216DAVISVP2,2013-08-30 11:42:00,
2013-08-30 06:47:00,72.6,70.7,29.94,NNE,25,0.0,0.0,94,0.00,,,0.00,WUHU216DAVISVP2,2013-08-30 11:47:00,
2013-08-30 06:52:00,72.7,70.8,29.94,NNE,25,0.0,0.0,94,0.00,,,0.00,WUHU216DAVISVP2,2013-08-30 11:52:00,
2013-08-30 06:57:00,73.0,70.8,29.94,NNE,25,0.0,0.0,93,0.00,,,0.00,WUHU216DAVISVP2,2013-08-30 11:57:00,
2013-08-30 07:02:00,73.3,71.1,29.94,NNE,25,0.0,0.0,93,0.00,,,0.00,WUHU216DAVISVP2,2013-08-30 12:02:00,
2013-08-30 07:07:00,73.5,71.0,29.95,NNE,25,0.0,0.0,92,0.00,,,0.00,WUHU216DAVISVP2,2013-08-30 12:07:00,
2013-08-30 07:12:00,73.6,71.1,29.95,NNE,25,0.0,0.0,92,0.00,,,0.00,WUHU216DAVISVP2,2013-08-30 12:12:00,
2013-08-30 07:17:00,73.8,71.0,29.95,NW,322,0.0,0.0,91,0.00,,,0.00,WUHU216DAVISVP2,2013-08-30 12:17:00,
2013-08-30 07:22:00,74.1,71.3,29.95,WSW,240,0.0,0.0,91,0.00,,,0.00,WUHU216DAVISVP2,2013-08-30 12:22:00,
2013-08-30 07:27:00,74.5,71.4,29.95,WSW,240,0.0,0.0,90,0.00,,,0.00,WUHU216DAVISVP2,2013-08-30 12:27:00,
2013-08-30 07:32:00,74.9,71.4,29.95,WSW,249,0.0,0.0,89,0.00,,,0.00,WUHU216DAVISVP2,2013-08-30 12:32:00,
2013-08-30 07:37:00,75.6,72.1,29.95,WSW,249,0.0,0.0,89,0.00,,,0.00,WUHU216DAVISVP2,2013-08-30 12:37:00,
2013-08-30 07:42:00,76.2,72.7,29.95,WSW,250,0.0,0.0,89,0.00,,,0.00,WUHU216DAVISVP2,2013-08-30 12:42:00,
2013-08-30 07:47:00,76.5,72.3,29.95,WNW,282,0.0,0.0,87,0.00,,,0.00,WUHU216DAVISVP2,2013-08-30 12:47:00,
2013-08-30 07:52:00,76.9,72.8,29.95,WNW,299,0.0,0.0,87,0.00,,,0.00,WUHU216DAVISVP2,2013-08-30 12:52:00,
2013-08-30 07:57:00,77.4,72.9,29.95,NNW,329,0.0,0.0,86,0.00,,,0.00,WUHU216DAVISVP2,2013-08-30 12:57:00,
2013-08-30 08:02:00,77.8,72.6,29.95,WNW,290,1.0,1.0,84,0.00,,,0.00,WUHU216DAVISVP2,2013-08-30 13:02:00,
2013-08-30 08:07:00,78.2,73.7,29.95,WSW,241,0.0,1.0,86,0.00,,,0.00,WUHU216DAVISVP2,2013-08-30 13:07:00,
2013-08-30 08:12:00,78.5,74.0,29.95,SSW,210,1.0,2.0,86,0.00,,,0.00,WUHU216DAVISVP2,2013-08-30 13:12:00,
2013-08-30 08:17:00,78.7,73.9,29.95,SSW,210,2.0,2.0,85,0.00,,,0.00,WUHU216DAVISVP2,2013-08-30 13:17:00,
2013-08-30 08:22:00,78.9,73.4,29.95,WSW,245,1.0,3.0,83,0.00,,,0.00,WUHU216DAVISVP2,2013-08-30 13:22:00,
2013-08-30 08:27:00,79.3,73.8,29.95,SW,224,0.0,3.0,83,0.00,,,0.00,WUHU216DAVISVP2,2013-08-30 13:27:00,
2013-08-30 08:32:00,79.7,74.4,29.95,SW,234,1.0,3.0,84,0.00,,,0.00,WUHU216DAVISVP2,2013-08-30 13:32:00,
2013-08-30 08:37:00,80.3,74.7,29.95,SW,229,2.0,3.0,83,0.00,,,0.00,WUHU216DAVISVP2,2013-08-30 13:37:00,
2013-08-30 08:42:00,80.6,74.0,29.95,WSW,242,2.0,4.0,80,0.00,,,0.00,WUHU216DAVISVP2,2013-08-30 13:42:00,
2013-08-30 08:47:00,81.1,74.8,29.95,WSW,238,2.0,4.0,81,0.00,,,0.00,WUHU216DAVISVP2,2013-08-30 13:47:00,
2013-08-30 08:52:00,81.6,75.3,29.95,SW,223,2.0,4.0,81,0.00,,,0.00,WUHU216DAVISVP2,2013-08-30 13:52:00,
2013-08-30 08:57:00,82.2,74.3,29.95,WSW,252,2.0,5.0,77,0.00,,,0.00,WUHU216DAVISVP2,2013-08-30 13:57:00,
2013-08-30 09:02:00,82.5,74.7,29.95,SW,224,1.0,5.0,77,0.00,,,0.00,WUHU216DAVISVP2,2013-08-30 14:02:00,
2013-08-30 09:07:00,82.9,75.9,29.95,SW,230,1.0,5.0,79,0.00,,,0.00,WUHU216DAVISVP2,2013-08-30 14:07:00,
2013-08-30 09:12:00,83.3,76.2,29.95,SSW,203,1.0,4.0,79,0.00,,,0.00,WUHU216DAVISVP2,2013-08-30 14:12:00,
2013-08-30 09:17:00,83.7,75.3,29.95,SW,221,4.0,5.0,76,0.00,,,0.00,WUHU216DAVISVP2,2013-08-30 14:17:00,
2013-08-30 09:22:00,84.2,76.0,29.95,SW,218,2.0,5.0,76,0.00,,,0.00,WUHU216DAVISVP2,2013-08-30 14:22:00,
2013-08-30 09:27:00,84.6,76.0,29.95,SW,234,1.0,5.0,75,0.00,,,0.00,WUHU216DAVISVP2,2013-08-30 14:27:00,
2013-08-30 09:32:00,84.7,76.1,29.94,WSW,252,2.0,5.0,75,0.00,,,0.00,WUHU216DAVISVP2,2013-08-30 14:32:00,
2013-08-30 09:37:00,85.0,75.6,29.94,WNW,285,3.0,4.0,73,0.00,,,0.00,WUHU216DAVISVP2,2013-08-30 14:37:00,
2013-08-30 09:42:00,85.3,76.1,29.95,SW,233,0.0,4.0,74,0.00,,,0.00,WUHU216DAVISVP2,2013-08-30 14:42:00,
2013-08-30 09:47:00,85.6,75.8,29.94,SW,221,2.0,6.0,72,0.00,,,0.00,WUHU216DAVISVP2,2013-08-30 14:47:00,
2013-08-30 09:52:00,86.0,75.7,29.95,WNW,282,2.0,6.0,71,0.00,,,0.00,WUHU216DAVISVP2,2013-08-30 14:52:00,
2013-08-30 09:57:00,86.3,76.4,29.95,WNW,293,3.0,5.0,72,0.00,,,0.00,WUHU216DAVISVP2,2013-08-30 14:57:00,
2013-08-30 10:02:00,86.6,75.9,29.94,SSW,195,2.0,4.0,70,0.00,,,0.00,WUHU216DAVISVP2,2013-08-30 15:02:00,
2013-08-30 10:07:00,87.0,76.0,29.94,WNW,284,4.0,5.0,70,0.00,,,0.00,WUHU216DAVISVP2,2013-08-30 15:07:00,
2013-08-30 10:12:00,87.1,76.8,29.94,WNW,302,1.0,5.0,71,0.00,,,0.00,WUHU216DAVISVP2,2013-08-30 15:12:00,
2013-08-30 10:17:00,87.6,76.9,29.94,SW,223,4.0,5.0,70,0.00,,,0.00,WUHU216DAVISVP2,2013-08-30 15:17:00,
2013-08-30 10:22:00,87.8,75.3,29.94,WNW,288,3.0,6.0,66,0.00,,,0.00,WUHU216DAVISVP2,2013-08-30 15:22:00,
2013-08-30 10:27:00,88.0,76.8,29.94,WNW,297,3.0,6.0,69,0.00,,,0.00,WUHU216DAVISVP2,2013-08-30 15:27:00,
2013-08-30 10:32:00,88.2,75.9,29.94,SW,224,2.0,6.0,67,0.00,,,0.00,WUHU216DAVISVP2,2013-08-30 15:32:00,
2013-08-30 10:37:00,88.7,76.2,29.94,WSW,239,2.0,6.0,66,0.00,,,0.00,WUHU216DAVISVP2,2013-08-30 15:37:00,
2013-08-30 10:42:00,89.0,76.5,29.94,West,275,3.0,6.0,66,0.00,,,0.00,WUHU216DAVISVP2,2013-08-30 15:42:00,
2013-08-30 10:47:00,89.4,76.8,29.94,SW,231,4.0,7.0,66,0.00,,,0.00,WUHU216DAVISVP2,2013-08-30 15:47:00,
2013-08-30 10:52:00,89.7,76.7,29.94,WSW,240,3.0,7.0,65,0.00,,,0.00,WUHU216DAVISVP2,2013-08-30 15:52:00,
2013-08-30 10:57:00,90.1,76.7,29.93,SSW,207,2.0,5.0,65,0.00,,,0.00,WUHU216DAVISVP2,2013-08-30 15:57:00,
2013-08-30 11:02:00,90.2,76.2,29.93,SW,226,1.0,5.0,63,0.00,,,0.00,WUHU216DAVISVP2,2013-08-30 16:02:00,
2013-08-30 11:07:00,90.6,77.1,29.93,WSW,247,2.0,5.0,64,0.00,,,0.00,WUHU216DAVISVP2,2013-08-30 16:07:00,
2013-08-30 11:12:00,91.0,77.4,29.93,WSW,245,2.0,5.0,64,0.00,,,0.00,WUHU216DAVISVP2,2013-08-30 16:12:00,
2013-08-30 11:17:00,91.5,77.4,29.93,SW,231,2.0,6.0,63,0.00,,,0.00,WUHU216DAVISVP2,2013-08-30 16:17:00,
2013-08-30 11:22:00,91.6,77.1,29.93,West,259,1.0,6.0,62,0.00,,,0.00,WUHU216DAVISVP2,2013-08-30 16:22:00,
2013-08-30 11:27:00,91.9,77.8,29.93,SSW,203,2.0,7.0,63,0.00,,,0.00,WUHU216DAVISVP2,2013-08-30 16:27:00,
2013-08-30 11:32:00,91.7,75.3,29.93,SW,235,3.0,7.0,59,0.00,,,0.00,WUHU216DAVISVP2,2013-08-30 16:32:00,
2013-08-30 11:37:00,92.2,77.1,29.92,SSW,212,5.0,5.0,61,0.00,,,0.00,WUHU216DAVISVP2,2013-08-30 16:37:00,
2013-08-30 11:42:00,92.6,76.0,29.92,West,272,2.0,6.0,58,0.00,,,0.00,WUHU216DAVISVP2,2013-08-30 16:42:00,
2013-08-30 11:47:00,92.4,74.2,29.92,SSW,198,5.0,11.0,55,0.00,,,0.00,WUHU216DAVISVP2,2013-08-30 16:47:00,
2013-08-30 11:52:00,92.5,75.3,29.92,SW,229,3.0,11.0,57,0.00,,,0.00,WUHU216DAVISVP2,2013-08-30 16:52:00,
2013-08-30 11:57:00,92.7,75.5,29.92,SSW,204,4.0,9.0,57,0.00,,,0.00,WUHU216DAVISVP2,2013-08-30 16:57:00,
2013-08-30 12:02:00,92.7,74.4,29.92,SW,217,7.0,7.0,55,0.00,,,0.00,WUHU216DAVISVP2,2013-08-30 17:02:00,
2013-08-30 12:07:00,93.0,75.0,29.92,SSW,202,2.0,9.0,56,0.00,,,0.00,WUHU216DAVISVP2,2013-08-30 17:07:00,
2013-08-30 12:12:00,93.0,73.3,29.92,SSW,199,2.0,9.0,53,0.00,,,0.00,WUHU216DAVISVP2,2013-08-30 17:12:00,
2013-08-30 12:17:00,93.4,74.5,29.92,SSW,200,6.0,9.0,54,0.00,,,0.00,WUHU216DAVISVP2,2013-08-30 17:17:00,
2013-08-30 12:22:00,93.4,72.8,29.91,SW,228,6.0,9.0,51,0.00,,,0.00,WUHU216DAVISVP2,2013-08-30 17:22:00,
2013-08-30 12:27:00,93.4,73.4,29.91,WSW,255,3.0,9.0,52,0.00,,,0.00,WUHU216DAVISVP2,2013-08-30 17:27:00,
2013-08-30 12:32:00,93.4,74.5,29.91,SSW,195,3.0,6.0,54,0.00,,,0.00,WUHU216DAVISVP2,2013-08-30 17:32:00,
2013-08-30 12:37:00,93.9,73.8,29.91,SW,216,6.0,8.0,52,0.00,,,0.00,WUHU216DAVISVP2,2013-08-30 17:37:00,
2013-08-30 12:42:00,94.0,73.3,29.91,SW,233,4.0,8.0,51,0.00,,,0.00,WUHU216DAVISVP2,2013-08-30 17:42:00,
2013-08-30 12:47:00,94.2,72.1,29.90,WSW,254,3.0,8.0,49,0.00,,,0.00,WUHU216DAVISVP2,2013-08-30 17:47:00,
2013-08-30 12:52:00,94.1,75.2,29.90,SW,229,3.0,7.0,54,0.00,,,0.00,WUHU216DAVISVP2,2013-08-30 17:52:00,
2013-08-30 12:57:00,94.2,73.5,29.90,SW,232,2.0,7.0,51,0.00,,,0.00,WUHU216DAVISVP2,2013-08-30 17:57:00,
2013-08-30 13:03:00,94.6,73.9,29.90,SW,219,7.0,7.0,51,0.00,,,0.00,WUHU216DAVISVP2,2013-08-30 18:03:00,
2013-08-30 13:08:00,94.7,72.8,29.90,SSW,207,6.0,8.0,49,0.00,,,0.00,WUHU216DAVISVP2,2013-08-30 18:08:00,
2013-08-30 13:13:00,94.9,72.3,29.90,SSW,196,4.0,8.0,48,0.00,,,0.00,WUHU216DAVISVP2,2013-08-30 18:13:00,
2013-08-30 13:18:00,95.0,73.0,29.90,SSW,192,5.0,8.0,49,0.00,,,0.00,WUHU216DAVISVP2,2013-08-30 18:18:00,
2013-08-30 13:23:00,95.3,72.7,29.89,South,191,5.0,9.0,48,0.00,,,0.00,WUHU216DAVISVP2,2013-08-30 18:23:00,
2013-08-30 13:28:00,95.3,73.3,29.89,SW,224,4.0,10.0,49,0.00,,,0.00,WUHU216DAVISVP2,2013-08-30 18:28:00,
2013-08-30 13:33:00,95.2,73.6,29.89,SW,221,7.0,10.0,50,0.00,,,0.00,WUHU216DAVISVP2,2013-08-30 18:33:00,
2013-08-30 13:38:00,95.1,71.7,29.89,SSW,193,3.0,8.0,47,0.00,,,0.00,WUHU216DAVISVP2,2013-08-30 18:38:00,
2013-08-30 13:43:00,95.5,74.7,29.89,WNW,288,4.0,8.0,51,0.00,,,0.00,WUHU216DAVISVP2,2013-08-30 18:43:00,
2013-08-30 13:48:00,95.2,73.2,29.89,SW,217,3.0,6.0,49,0.00,,,0.00,WUHU216DAVISVP2,2013-08-30 18:48:00,
2013-08-30 13:53:00,95.3,75.7,29.89,West,281,3.0,6.0,53,0.00,,,0.00,WUHU216DAVISVP2,2013-08-30 18:53:00,
2013-08-30 13:58:00,95.4,74.0,29.89,SW,233,4.0,6.0,50,0.00,,,0.00,WUHU216DAVISVP2,2013-08-30 18:58:00,
2013-08-30 14:03:00,95.2,72.6,29.89,SW,233,3.0,5.0,48,0.00,,,0.00,WUHU216DAVISVP2,2013-08-30 19:03:00,
2013-08-30 14:08:00,95.5,75.3,29.89,SW,221,4.0,7.0,52,0.00,,,0.00,WUHU216DAVISVP2,2013-08-30 19:08:00,
2013-08-30 14:13:00,95.7,73.7,29.89,SSW,203,4.0,10.0,49,0.00,,,0.00,WUHU216DAVISVP2,2013-08-30 19:13:00,
2013-08-30 14:18:00,95.4,73.8,29.89,SSW,198,3.0,10.0,50,0.00,,,0.00,WUHU216DAVISVP2,2013-08-30 19:18:00,
2013-08-30 14:23:00,95.2,75.6,29.88,SW,232,4.0,7.0,53,0.00,,,0.00,WUHU216DAVISVP2,2013-08-30 19:23:00,
2013-08-30 14:28:00,95.6,73.0,29.88,SSW,205,5.0,6.0,48,0.00,,,0.00,WUHU216DAVISVP2,2013-08-30 19:28:00,
2013-08-30 14:33:00,95.4,72.8,29.88,SSW,199,2.0,7.0,48,0.00,,,0.00,WUHU216DAVISVP2,2013-08-30 19:33:00,
2013-08-30 14:38:00,95.2,71.9,29.87,WSW,257,0.0,7.0,47,0.00,,,0.00,WUHU216DAVISVP2,2013-08-30 19:38:00,
2013-08-30 14:43:00,95.8,74.4,29.87,SSW,209,6.0,7.0,50,0.00,,,0.00,WUHU216DAVISVP2,2013-08-30 19:43:00,
2013-08-30 14:48:00,95.8,72.5,29.87,SW,226,3.0,7.0,47,0.00,,,0.00,WUHU216DAVISVP2,2013-08-30 19:48:00,
2013-08-30 14:53:00,95.2,73.2,29.87,WSW,240,2.0,6.0,49,0.00,,,0.00,WUHU216DAVISVP2,2013-08-30 19:53:00,
2013-08-30 14:58:00,95.2,74.5,29.87,SW,220,0.0,4.0,51,0.00,,,0.00,WUHU216DAVISVP2,2013-08-30 19:58:00,
2013-08-30 15:03:00,96.1,75.6,29.87,South,191,3.0,5.0,52,0.00,,,0.00,WUHU216DAVISVP2,2013-08-30 20:03:00,
2013-08-30 15:08:00,96.0,73.1,29.87,SSW,205,6.0,7.0,48,0.00,,,0.00,WUHU216DAVISVP2,2013-08-30 20:08:00,
2013-08-30 15:13:00,95.7,73.7,29.87,SSW,205,8.0,8.0,49,0.00,,,0.00,WUHU216DAVISVP2,2013-08-30 20:13:00,
2013-08-30 15:18:00,95.4,73.4,29.87,SSW,205,5.0,8.0,49,0.00,,,0.00,WUHU216DAVISVP2,2013-08-30 20:18:00,
2013-08-30 15:23:00,95.2,73.8,29.87,SW,231,2.0,8.0,50,0.00,,,0.00,WUHU216DAVISVP2,2013-08-30 20:23:00,
2013-08-30 15:28:00,95.1,74.4,29.86,WSW,239,3.0,7.0,51,0.00,,,0.00,WUHU216DAVISVP2,2013-08-30 20:28:00,
2013-08-30 15:33:00,94.8,74.7,29.86,SW,221,2.0,6.0,52,0.00,,,0.00,WUHU216DAVISVP2,2013-08-30 20:33:00,
2013-08-30 15:38:00,94.4,76.6,29.86,SW,221,1.0,6.0,56,0.00,,,0.00,WUHU216DAVISVP2,2013-08-30 20:38:00,
2013-08-30 15:43:00,94.6,77.3,29.86,SW,231,1.0,4.0,57,0.00,,,0.00,WUHU216DAVISVP2,2013-08-30 20:43:00,
2013-08-30 15:48:00,95.0,75.7,29.86,SW,227,4.0,6.0,54,0.00,,,0.00,WUHU216DAVISVP2,2013-08-30 20:48:00,
2013-08-30 15:53:00,95.1,75.3,29.85,SSW,208,3.0,6.0,53,0.00,,,0.00,WUHU216DAVISVP2,2013-08-30 20:53:00,
2013-08-30 15:58:00,94.7,73.8,29.85,SSW,201,6.0,6.0,51,0.00,,,0.00,WUHU216DAVISVP2,2013-08-30 20:58:00,
2013-08-30 16:03:00,95.0,74.9,29.85,SW,226,6.0,8.0,52,0.00,,,0.00,WUHU216DAVISVP2,2013-08-30 21:03:00,
2013-08-30 16:08:00,95.2,76.2,29.85,SSW,203,4.0,9.0,54,0.00,,,0.00,WUHU216DAVISVP2,2013-08-30 21:08:00,
2013-08-30 16:13:00,95.5,75.3,29.85,SSW,206,5.0,9.0,52,0.00,,,0.00,WUHU216DAVISVP2,2013-08-30 21:13:00,
2013-08-30 16:18:00,95.2,74.5,29.85,SW,225,6.0,11.0,51,0.00,,,0.00,WUHU216DAVISVP2,2013-08-30 21:18:00,
2013-08-30 16:23:00,94.8,75.3,29.85,SW,225,10.0,11.0,53,0.00,,,0.00,WUHU216DAVISVP2,2013-08-30 21:23:00,
2013-08-30 16:28:00,94.6,74.8,29.85,SW,214,4.0,10.0,53,0.00,,,0.00,WUHU216DAVISVP2,2013-08-30 21:28:00,
2013-08-30 16:33:00,94.2,76.1,29.85,SW,217,6.0,10.0,56,0.00,,,0.00,WUHU216DAVISVP2,2013-08-30 21:33:00,
2013-08-30 16:38:00,94.1,76.0,29.84,SSW,203,4.0,10.0,56,0.00,,,0.00,WUHU216DAVISVP2,2013-08-30 21:38:00,
2013-08-30 16:43:00,94.0,77.0,29.84,SSW,201,3.0,7.0,58,0.00,,,0.00,WUHU216DAVISVP2,2013-08-30 21:43:00,
2013-08-30 16:48:00,93.8,75.7,29.84,SW,231,7.0,9.0,56,0.00,,,0.00,WUHU216DAVISVP2,2013-08-30 21:48:00,
2013-08-30 16:53:00,93.6,75.5,29.84,SSW,203,7.0,9.0,56,0.00,,,0.00,WUHU216DAVISVP2,2013-08-30 21:53:00,
2013-08-30 16:58:00,93.3,75.6,29.84,SSW,205,6.0,11.0,56,0.00,,,0.00,WUHU216DAVISVP2,2013-08-30 21:58:00,
2013-08-30 17:03:00,92.7,75.0,29.84,SW,218,5.0,11.0,56,0.00,,,0.00,WUHU216DAVISVP2,2013-08-30 22:03:00,
2013-08-30 17:08:00,92.4,74.7,29.84,SSW,210,10.0,10.0,56,0.00,,,0.00,WUHU216DAVISVP2,2013-08-30 22:08:00,
2013-08-30 17:13:00,92.6,74.3,29.84,SW,222,6.0,11.0,55,0.00,,,0.00,WUHU216DAVISVP2,2013-08-30 22:13:00,
2013-08-30 17:18:00,92.2,74.5,29.84,SW,221,6.0,11.0,56,0.00,,,0.00,WUHU216DAVISVP2,2013-08-30 22:18:00,
2013-08-30 17:23:00,91.8,74.1,29.84,SSW,195,6.0,9.0,56,0.00,,,0.00,WUHU216DAVISVP2,2013-08-30 22:23:00,
2013-08-30 17:28:00,91.1,74.0,29.84,SW,220,5.0,8.0,57,0.00,,,0.00,WUHU216DAVISVP2,2013-08-30 22:28:00,
2013-08-30 17:33:00,91.0,73.9,29.84,SSW,213,2.0,8.0,57,0.00,,,0.00,WUHU216DAVISVP2,2013-08-30 22:33:00,
2013-08-30 17:38:00,90.8,74.3,29.84,SW,214,4.0,7.0,58,0.00,,,0.00,WUHU216DAVISVP2,2013-08-30 22:38:00,
2013-08-30 17:43:00,90.4,74.9,29.84,SSW,205,3.0,5.0,60,0.00,,,0.00,WUHU216DAVISVP2,2013-08-30 22:43:00,
2013-08-30 17:48:00,90.1,75.3,29.84,SW,225,2.0,4.0,62,0.00,,,0.00,WUHU216DAVISVP2,2013-08-30 22:48:00,
2013-08-30 17:53:00,89.8,75.3,29.84,SSW,213,2.0,4.0,62,0.00,,,0.00,WUHU216DAVISVP2,2013-08-30 22:53:00,
2013-08-30 17:58:00,89.5,75.5,29.84,South,191,2.0,4.0,63,0.00,,,0.00,WUHU216DAVISVP2,2013-08-30 22:58:00,
2013-08-30 18:03:00,89.6,75.2,29.84,SSW,203,1.0,5.0,62,0.00,,,0.00,WUHU216DAVISVP2,2013-08-30 23:03:00,
2013-08-30 18:08:00,89.7,75.3,29.83,SW,226,4.0,5.0,62,0.00,,,0.00,WUHU216DAVISVP2,2013-08-30 23:08:00,
2013-08-30 18:13:00,89.4,75.4,29.83,SSW,212,2.0,4.0,63,0.00,,,0.00,WUHU216DAVISVP2,2013-08-30 23:13:00,
2013-08-30 18:18:00,89.1,74.7,29.83,SSW,212,3.0,4.0,62,0.00,,,0.00,WUHU216DAVISVP2,2013-08-30 23:18:00,
2013-08-30 18:23:00,88.7,74.3,29.83,SSW,205,3.0,5.0,62,0.00,,,0.00,WUHU216DAVISVP2,2013-08-30 23:23:00,
2013-08-30 18:28:00,88.2,74.3,29.83,SSW,205,4.0,5.0,63,0.00,,,0.00,WUHU216DAVISVP2,2013-08-30 23:28:00,
2013-08-30 18:33:00,87.9,74.5,29.83,SSW,205,2.0,4.0,64,0.00,,,0.00,WUHU216DAVISVP2,2013-08-30 23:33:00,
2013-08-30 18:38:00,87.8,74.1,29.83,SSW,203,2.0,5.0,64,0.00,,,0.00,WUHU216DAVISVP2,2013-08-30 23:38:00,
2013-08-30 18:43:00,87.7,74.3,29.83,SSW,194,3.0,5.0,64,0.00,,,0.00,WUHU216DAVISVP2,2013-08-30 23:43:00,
2013-08-30 18:48:00,87.6,74.7,29.83,SSW,209,3.0,6.0,65,0.00,,,0.00,WUHU216DAVISVP2,2013-08-30 23:48:00,
2013-08-30 18:53:00,87.4,74.9,29.83,SSW,210,2.0,6.0,66,0.00,,,0.00,WUHU216DAVISVP2,2013-08-30 23:53:00,
2013-08-30 18:58:00,87.2,74.7,29.83,SSW,207,1.0,4.0,66,0.00,,,0.00,WUHU216DAVISVP2,2013-08-30 23:58:00,
2013-08-30 19:03:00,86.9,74.9,29.83,South,184,2.0,3.0,67,0.00,,,0.00,WUHU216DAVISVP2,2013-08-31 00:03:00,
2013-08-30 19:08:00,86.5,75.0,29.83,SSW,205,1.0,3.0,68,0.00,,,0.00,WUHU216DAVISVP2,2013-08-31 00:08:00,
2013-08-30 19:13:00,86.1,74.7,29.83,SSW,199,1.0,3.0,69,0.00,,,0.00,WUHU216DAVISVP2,2013-08-31 00:13:00,
2013-08-30 19:18:00,85.8,75.1,29.83,SSW,211,2.0,3.0,70,0.00,,,0.00,WUHU216DAVISVP2,2013-08-31 00:18:00,
2013-08-30 19:23:00,85.5,75.3,29.83,SSW,203,2.0,3.0,71,0.00,,,0.00,WUHU216DAVISVP2,2013-08-31 00:23:00,
2013-08-30 19:27:00,85.1,75.3,29.83,SSW,210,2.0,3.0,72,0.00,,,0.00,WUHU216DAVISVP2,2013-08-31 00:27:00,
2013-08-30 19:32:00,84.8,74.8,29.83,SSW,205,2.0,2.0,72,0.00,,,0.00,WUHU216DAVISVP2,2013-08-31 00:32:00,
2013-08-30 19:37:00,84.4,75.0,29.83,SSW,203,3.0,3.0,73,0.00,,,0.00,WUHU216DAVISVP2,2013-08-31 00:37:00,
2013-08-30 19:42:00,84.1,75.1,29.84,SSW,205,2.0,3.0,74,0.00,,,0.00,WUHU216DAVISVP2,2013-08-31 00:42:00,
2013-08-30 19:47:00,83.8,75.2,29.84,SSW,198,2.0,4.0,75,0.00,,,0.00,WUHU216DAVISVP2,2013-08-31 00:47:00,
2013-08-30 19:52:00,83.6,74.6,29.83,SSW,193,2.0,4.0,74,0.00,,,0.00,WUHU216DAVISVP2,2013-08-31 00:52:00,
2013-08-30 19:57:00,83.6,75.0,29.84,SSW,212,2.0,3.0,75,0.00,,,0.00,WUHU216DAVISVP2,2013-08-31 00:57:00,
2013-08-30 20:02:00,83.6,74.8,29.84,SSW,204,2.0,3.0,75,0.00,,,0.00,WUHU216DAVISVP2,2013-08-31 01:02:00,
2013-08-30 20:07:00,83.5,74.9,29.84,SW,214,1.0,2.0,75,0.00,,,0.00,WUHU216DAVISVP2,2013-08-31 01:07:00,
2013-08-30 20:12:00,83.5,74.9,29.84,SSW,208,1.0,2.0,75,0.00,,,0.00,WUHU216DAVISVP2,2013-08-31 01:12:00,
2013-08-30 20:17:00,83.7,74.7,29.84,SSW,203,1.0,3.0,74,0.00,,,0.00,WUHU216DAVISVP2,2013-08-31 01:17:00,
2013-08-30 20:22:00,83.7,74.9,29.84,SW,217,3.0,3.0,75,0.00,,,0.00,WUHU216DAVISVP2,2013-08-31 01:22:00,
2013-08-30 20:27:00,83.6,75.0,29.84,SSW,205,2.0,3.0,75,0.00,,,0.00,WUHU216DAVISVP2,2013-08-31 01:27:00,
2013-08-30 20:32:00,83.6,75.0,29.84,SSW,200,2.0,2.0,75,0.00,,,0.00,WUHU216DAVISVP2,2013-08-31 01:32:00,
2013-08-30 20:37:00,83.4,74.8,29.84,SSW,205,1.0,3.0,75,0.00,,,0.00,WUHU216DAVISVP2,2013-08-31 01:37:00,
2013-08-30 20:42:00,83.2,75.0,29.84,SSW,210,1.0,3.0,76,0.00,,,0.00,WUHU216DAVISVP2,2013-08-31 01:42:00,
2013-08-30 20:47:00,83.0,74.6,29.84,SW,217,1.0,3.0,76,0.00,,,0.00,WUHU216DAVISVP2,2013-08-31 01:47:00,
2013-08-30 20:52:00,82.8,74.6,29.84,SW,214,2.0,2.0,76,0.00,,,0.00,WUHU216DAVISVP2,2013-08-31 01:52:00,
2013-08-30 20:57:00,82.8,75.0,29.84,SSW,207,0.0,3.0,77,0.00,,,0.00,WUHU216DAVISVP2,2013-08-31 01:57:00,
2013-08-30 21:02:00,82.5,74.7,29.84,SSW,198,0.0,3.0,77,0.00,,,0.00,WUHU216DAVISVP2,2013-08-31 02:02:00,
2013-08-30 21:07:00,82.3,74.9,29.84,SSW,207,1.0,2.0,78,0.00,,,0.00,WUHU216DAVISVP2,2013-08-31 02:07:00,
2013-08-30 21:12:00,82.1,74.6,29.84,SSW,207,1.0,1.0,78,0.00,,,0.00,WUHU216DAVISVP2,2013-08-31 02:12:00,
2013-08-30 21:17:00,82.1,74.7,29.84,SSW,201,1.0,2.0,78,0.00,,,0.00,WUHU216DAVISVP2,2013-08-31 02:17:00,
2013-08-30 21:22:00,82.0,74.6,29.84,SW,218,0.0,2.0,78,0.00,,,0.00,WUHU216DAVISVP2,2013-08-31 02:22:00,
2013-08-30 21:27:00,81.8,74.4,29.84,SW,218,0.0,2.0,78,0.00,,,0.00,WUHU216DAVISVP2,2013-08-31 02:27:00,
2013-08-30 21:32:00,81.6,74.2,29.84,SSW,205,0.0,1.0,78,0.00,,,0.00,WUHU216DAVISVP2,2013-08-31 02:32:00,
2013-08-30 21:37:00,81.4,74.4,29.84,SSW,205,0.0,0.0,79,0.00,,,0.00,WUHU216DAVISVP2,2013-08-31 02:37:00,
2013-08-30 21:42:00,81.4,74.3,29.84,SSW,207,1.0,1.0,79,0.00,,,0.00,WUHU216DAVISVP2,2013-08-31 02:42:00,
2013-08-30 21:47:00,81.3,74.3,29.84,SSW,212,1.0,2.0,79,0.00,,,0.00,WUHU216DAVISVP2,2013-08-31 02:47:00,
2013-08-30 21:52:00,81.2,74.2,29.84,SSW,196,2.0,2.0,79,0.00,,,0.00,WUHU216DAVISVP2,2013-08-31 02:52:00,
2013-08-30 21:57:00,81.0,74.4,29.83,SSW,205,0.0,2.0,80,0.00,,,0.00,WUHU216DAVISVP2,2013-08-31 02:57:00,
2013-08-30 22:02:00,80.8,74.2,29.84,SW,233,0.0,2.0,80,0.00,,,0.00,WUHU216DAVISVP2,2013-08-31 03:02:00,
2013-08-30 22:07:00,80.7,74.4,29.83,SW,229,1.0,2.0,81,0.00,,,0.00,WUHU216DAVISVP2,2013-08-31 03:07:00,
2013-08-30 22:12:00,80.5,74.1,29.83,SSW,197,2.0,2.0,81,0.00,,,0.00,WUHU216DAVISVP2,2013-08-31 03:12:00,
2013-08-30 22:17:00,80.3,74.4,29.83,SSW,208,1.0,2.0,82,0.00,,,0.00,WUHU216DAVISVP2,2013-08-31 03:17:00,
2013-08-30 22:22:00,80.1,74.2,29.83,SSW,203,1.0,3.0,82,0.00,,,0.00,WUHU216DAVISVP2,2013-08-31 03:22:00,
2013-08-30 22:27:00,79.9,74.0,29.83,SSW,205,1.0,3.0,82,0.00,,,0.00,WUHU216DAVISVP2,2013-08-31 03:27:00,
2013-08-30 22:32:00,79.7,74.2,29.83,SW,221,0.0,2.0,83,0.00,,,0.00,WUHU216DAVISVP2,2013-08-31 03:32:00,
2013-08-30 22:37:00,79.6,74.1,29.83,SW,229,0.0,1.0,83,0.00,,,0.00,WUHU216DAVISVP2,2013-08-31 03:37:00,
2013-08-30 22:42:00,79.4,74.2,29.83,SW,219,0.0,1.0,84,0.00,,,0.00,WUHU216DAVISVP2,2013-08-31 03:42:00,
2013-08-30 22:47:00,79.3,74.1,29.83,SW,219,0.0,0.0,84,0.00,,,0.00,WUHU216DAVISVP2,2013-08-31 03:47:00,
2013-08-30 22:52:00,79.2,74.0,29.83,SW,219,0.0,0.0,84,0.00,,,0.00,WUHU216DAVISVP2,2013-08-31 03:52:00,
2013-08-30 22:57:00,79.1,74.2,29.83,SW,219,0.0,0.0,85,0.00,,,0.00,WUHU216DAVISVP2,2013-08-31 03:57:00,
2013-08-30 23:01:00,79.1,74.2,29.83,SW,215,0.0,0.0,85,0.00,,,0.00,WUHU216DAVISVP2,2013-08-31 04:01:00,
2013-08-30 23:02:00,79.1,74.2,29.83,SW,216,0.0,0.0,85,0.00,,,0.00,WUHU216DAVISVP2,2013-08-31 04:02:00,
2013-08-30 23:07:00,79.1,74.2,29.83,SW,216,0.0,1.0,85,0.00,,,0.00,WUHU216DAVISVP2,2013-08-31 04:07:00,
2013-08-30 23:12:00,79.0,74.2,29.83,SW,216,0.0,1.0,85,0.00,,,0.00,WUHU216DAVISVP2,2013-08-31 04:12:00,
2013-08-30 23:17:00,78.8,73.9,29.83,SSW,212,0.0,1.0,85,0.00,,,0.00,WUHU216DAVISVP2,2013-08-31 04:17:00,
2013-08-30 23:22:00,78.8,74.3,29.83,SSW,205,1.0,1.0,86,0.00,,,0.00,WUHU216DAVISVP2,2013-08-31 04:22:00,
2013-08-30 23:27:00,78.8,74.3,29.83,SSW,205,0.0,1.0,86,0.00,,,0.00,WUHU216DAVISVP2,2013-08-31 04:27:00,
2013-08-30 23:32:00,78.7,74.2,29.83,SW,219,1.0,1.0,86,0.00,,,0.00,WUHU216DAVISVP2,2013-08-31 04:32:00,
2013-08-30 23:37:00,78.6,74.1,29.83,SSW,207,0.0,1.0,86,0.00,,,0.00,WUHU216DAVISVP2,2013-08-31 04:37:00,
2013-08-30 23:42:00,78.6,74.1,29.83,SSW,203,0.0,1.0,86,0.00,,,0.00,WUHU216DAVISVP2,2013-08-31 04:42:00,
2013-08-30 23:47:00,78.6,74.1,29.83,SSW,201,0.0,0.0,86,0.00,,,0.00,WUHU216DAVISVP2,2013-08-31 04:47:00,
2013-08-30 23:52:00,78.5,74.3,29.83,SSW,198,1.0,1.0,87,0.00,,,0.00,WUHU216DAVISVP2,2013-08-31 04:52:00,
2013-08-30 23:57:00,78.4,74.2,29.83,SSW,198,1.0,2.0,87,0.00,,,0.00,WUHU216DAVISVP2,2013-08-31 04:57:00,